Погода в Чипляеве

Россия / Калужская область     54°23′30″N   34°11′35″E
темп.,
°C
ветер,
м/с
пор.,
м/с
влажн.,
%
обл.,
%
осадки,
мм/ч
давл.,
гПа
погр.,
м
10 мая, пн
пн1000:00+2сз26755 0.0 1024113
03:00+1ссз22772 0.0 102627
06:00+2с23777 0.0 102765
09:00+9с23522 0.0 1027476
12:00+13с35373 0.0 10271534
15:00+15ссв45350 0.0 10261643
18:00+13ссв35500 0.0 10261160
21:00+7св24763 0.0 102862
11 мая, вт
вт1100:00+5св24810 0.0 102870
03:00+3ссв25820 0.0 102891
06:00+4св310790 0.0 1028239
09:00+11св47600 0.0 1027546
12:00+17св46535 0.0 1025862
15:00+19всв56510 0.0 10241142
18:00+18всв47650 0.0 10241015
21:00+12всв3109457 0.3 1024250
12 мая, ср
ср1200:00+12юв499418 0.0 1025600
03:00+8юв28974 0.0 1026181
06:00+7юв25935 0.0 1026129
09:00+11в247198 0.0 1025485
12:00+10ссв1283100 0.3 1023336
15:00+9ююз1196100 3.2 1020115
18:00+8юв3895100 3.9 1019438
21:00+6вюв399744 3.9 1020269
13 мая, чт
чт1300:00+5всв3109748 0.0 1019210
03:00+7в41495100 0.4 1017597
06:00+8вюв4129798 1.8 1017604
09:00+11юв488398 1.9 1017943
12:00+13ююв586986 0.3 10171241
15:00+16ююв475399 0.3 10161904
18:00+16ююв3759100 0.0 10151339
21:00+11вюв238379 0.0 101649
14 мая, пт
пт1400:00+10вюв2791100 0.0 1016128
03:00+11вюв3109197 0.0 1015214
06:00+11вюв41287100 0.0 1015311
09:00+16вюв51377100 0.1 1013690
12:00+15вюв41192100 2.0 1013671
15:00+18юв5108184 7.6 1011960
18:00+18юв598323 1.3 1009865
21:00+14ююв26975 4.0 1009124